Weather Roundup
Issued by NWS

Home | Current Version | Previous Version | Text Only | Print | Product List | Glossary On
Versions: 1 2 3 4 5 6 7 8 9 10 11 12 13 14 15 16 17 18 19 20 21 22 23 24 25 26 27 28 29 30 31 32 33 34 35 36 37 38 39 40 41 42 43 44 45 46 47 48 49 50
000
NZUS93 KARX 250159
HRRWXR

CURRENT HOURLY OBSERVATIONS ACROSS
MUCH OF THE UPPER MISSISSIPPI VALLEY
NATIONAL WEATHER SERVICE LA CROSSE WI
900 PM CDT THU JUL 24 2014


...SOUTHEAST MINNESOTA...


CITY           SKY/WX    TMP DP  RH WIND       PRES   REMARKS
ROCHESTER      PTCLDY    68  58  70 SE5       29.96R
ROCHESTER/MAYO NOT AVBL
WINONA         PTCLDY    73  61  64 S3        29.94S
AUSTIN         CLEAR     68  59  73 S12G18    29.91F
ALBERT LEA     CLEAR     70  57  64 S12G17    29.90F
DODGE CENTER   CLEAR     70  61  73 S6        29.95R
PRESTON        NOT AVBL
OWATONNA       CLEAR     70  59  68 S3        29.94R
FARIBAULT      CLEAR     73  55  53 S3        29.94R
$$

...ELSEWHERE IN MINNESOTA...


CITY           SKY/WX    TMP DP  RH WIND       PRES   REMARKS
MINNEAPOLIS    PTCLDY    76  59  55 SW6       29.92S
INTNL FALLS    MOCLDY    64  59  83 CALM      29.92F
DULUTH         MOCLDY    69  59  70 CALM      29.97S
RED WING       PTCLDY    73  57  56 S3        29.92S
REDWOOD FALLS  CLOUDY    68  61  78 S10       29.89R
MANKATO        CLEAR     68  55  64 S6        29.93R
WORTHINGTON    CLEAR     64  59  82 S9G17     29.91R
FAIRMONT       CLEAR     64  55  72 S8        29.91S
$$

...SOUTHWEST WISCONSIN...


CITY           SKY/WX    TMP DP  RH WIND       PRES   REMARKS
LA CROSSE      MOCLDY    74  59  59 SE7       29.94R
PRAIRIE DU CHI CLOUDY    73  57  56 SE7       29.96F
BOSCOBEL       CLOUDY    73  58  59 S5        29.97F
LONE ROCK      NOT AVBL
PLATTEVILLE    CLOUDY    69  58  68 S7        30.03S
FORT MC COY    CLOUDY    70  56  61 S3        29.98R
VIROQUA        FAIR      69  58  69 SE8       29.98F
WIS DELLS      MOCLDY    67  55  66 CALM      30.00F
$$

...ELSEWHERE IN WISCONSIN...


CITY           SKY/WX    TMP DP  RH WIND       PRES   REMARKS
MILWAUKEE      MOCLDY    63  45  51 S7        30.06F
MADISON        CLOUDY    72  57  59 S6        30.01F
GREEN BAY      MOCLDY    66  49  54 S13       30.02S
EAU CLAIRE     CLEAR     72  58  61 SE7       29.95S
BLACK RVR FLS  FAIR      66  59  76 CALM      29.96S
MEDFORD        MOCLDY    65  58  76 CALM      30.00S
WAUSAU         MOCLDY    70  53  54 SE6       29.97F
WIS RAPIDS     MOCLDY    70  54  56 S6        29.99F
MARSHFIELD     MOCLDY    69  59  70 CALM      29.99S
RICE LAKE      CLEAR     70  57  65 SE3       29.98R
$$

...NORTHEAST IOWA...


CITY           SKY/WX    TMP DP  RH WIND       PRES   REMARKS
WATERLOO       CLOUDY    70  61  73 SE10      29.92F
DUBUQUE        CLOUDY    66  60  81 S8        30.02F
DECORAH        CLOUDY    70  59  68 S6        29.94F
MASON CITY     CLEAR     65  61  87 S9        29.93F
CHARLES CITY   MOCLDY    68  61  77 S9        29.92F
OELWEIN        CLOUDY    70  61  73 S9        29.98F
$$

...ELSEWHERE IN IOWA...


CITY           SKY/WX    TMP DP  RH WIND       PRES   REMARKS
DES MOINES     CLOUDY    72  61  68 S15G28    29.89F
IOWA CITY      CLOUDY    71  60  68 SE9       29.98F
FORT DODGE     MOCLDY    66  61  82 S10       29.90F
MARSHALLTOWN   CLOUDY    65  62  90 E9        29.91S
CEDAR RAPIDS   CLOUDY    69  60  73 SE7       29.97F
$$

...NORTHERN ILLINOIS...


CITY           SKY/WX    TMP DP  RH WIND       PRES   REMARKS
CHICAGO-OHARE  MOCLDY    67  42  40 E8        30.06F
DUPAGE         PTCLDY    66  47  50 E7        30.06F
CHICAGO-MIDWAY CLOUDY    68  49  50 E7        30.08F
MOLINE         CLOUDY    69  59  70 S7        30.03F
ROCKFORD       CLOUDY    66  57  72 S6        30.06F
STERLING       CLOUDY    68  55  64 S5        30.05F
PEORIA         CLOUDY    71  56  58 CALM      30.08R
$$

NOTE: "FAIR" INDICATES FEW OR NO CLOUDS BELOW 12,000 FEET WITH NO
SIGNIFICANT WEATHER AND/OR OBSTRUCTIONS TO VISIBILITY. WIND
SPEEDS ARE IN MILES-PER-HOUR.



USA.gov is the U.S. government's official web portal to all federal, state and local government web resources and services.